Location: Newark
(18.8808°N, 99.0693°W)
Time: 19:03:36
(UTC+00:00)

N. Korean satellite - Pass Details

Date: 28 August 2019
Orbit: 455 x 508 km, 97.2° (Epoch: 16 September)

Event Time Altitude Azimuth Distance (km) Brightness Sun altitude
Rises 11:41:56 0° 32° (NNE) 2,504 10.9 -9.8°
Reaches altitude 10° 11:44:26 10° 50° (NE) 1,616 10.4 -9.2°
Maximum altitude 11:46:58 19° 98° (E) 1,155 9.6 -8.6°
Drops below altitude 10° 11:49:28 10° 145° (SE) 1,596 9.5 -8.0°
Sets 11:51:54 0° 164° (SSE) 2,462 10.2 -7.5°
